| time (UTC) | temp F | wind direction | speed MPH | gust MPH | rain 1hr in | rain 24hr in | rain mn in | humidity % | barometer mb |
| 20260505051326 | 48 | 79 | 4.0 | 5.0 | 0.00 | 0.02 | 0.02 | 63 | 1003.4 |
| 20260505050824 | 47 | 92 | 5.0 | 5.0 | 0.00 | 0.02 | 0.02 | 63 | 1003.8 |
| 20260505050322 | 46 | 122 | 1.0 | 1.0 | 0.00 | 0.02 | 0.02 | 68 | 1003.6 |
| 20260505041752 | 46 | 89 | 5.0 | 6.0 | 0.00 | 0.02 | 0.02 | 66 | 1003.0 |
| 20260505041249 | 46 | 89 | 4.0 | 5.0 | 0.00 | 0.02 | 0.02 | 67 | 1003.0 |
| 20260505040746 | 46 | 85 | 4.0 | 5.0 | 0.00 | 0.02 | 0.02 | 66 | 1003.1 |
| 20260505040244 | 46 | 100 | 4.0 | 5.0 | 0.00 | 0.02 | 0.02 | 65 | 1003.0 |
| 20260505035741 | 46 | 96 | 4.0 | 6.0 | 0.00 | 0.02 | 0.02 | 67 | 1002.7 |
| 20260505035236 | 46 | 107 | 2.0 | 2.0 | 0.00 | 0.02 | 0.02 | 68 | 1002.6 |
| 20260505034733 | 47 | 96 | 2.0 | 2.0 | 0.00 | 0.02 | 0.02 | 67 | 1002.8 |
| 20260505034230 | 47 | 133 | 1.0 | 2.0 | 0.00 | 0.02 | 0.02 | 67 | 1002.7 |
| 20260505033727 | 48 | 119 | 2.0 | 2.0 | 0.00 | 0.02 | 0.02 | 63 | 1002.7 |
| 20260505033225 | 48 | 103 | 3.0 | 3.0 | 0.00 | 0.02 | 0.02 | 63 | 1002.1 |
| 20260505032723 | 48 | 87 | 4.0 | 5.0 | 0.00 | 0.02 | 0.02 | 64 | 1002.5 |
| 20260505032218 | 47 | 97 | 2.0 | 2.0 | 0.00 | 0.02 | 0.02 | 65 | 1002.8 |
| 20260505031716 | 47 | 110 | 2.0 | 2.0 | 0.00 | 0.02 | 0.02 | 65 | 1002.4 |
| 20260505031212 | 46 | 114 | 3.0 | 3.0 | 0.00 | 0.02 | 0.02 | 66 | 1002.5 |
| 20260505030709 | 47 | 130 | 1.0 | 1.0 | 0.00 | 0.02 | 0.02 | 65 | 1002.1 |
| 20260505030205 | 47 | 113 | 2.0 | 2.0 | 0.00 | 0.02 | 0.02 | 64 | 1002.2 |
| 20260505025701 | 47 | 117 | 2.0 | 2.0 | 0.00 | 0.02 | 0.02 | 65 | 1002.1 |
| 20260505025159 | 46 | 89 | 2.0 | 2.0 | 0.00 | 0.02 | 0.02 | 67 | 1002.2 |
| 20260505024657 | 48 | 129 | 1.0 | 1.0 | 0.00 | 0.02 | 0.02 | 64 | 1001.9 |
| 20260505024154 | 48 | 137 | 0.0 | 1.0 | 0.00 | 0.02 | 0.02 | 64 | 1001.8 |
| 20260505023651 | 50 | 120 | 2.0 | 2.0 | 0.00 | 0.02 | 0.02 | 59 | 1001.8 |
| 20260505023149 | 50 | 165 | 1.0 | 1.0 | 0.00 | 0.02 | 0.02 | 60 | 1001.6 |
| 20260505022646 | 51 | 181 | 3.0 | 3.0 | 0.00 | 0.02 | 0.02 | 60 | 1001.9 |
| 20260505022143 | 51 | 105 | 3.0 | 3.0 | 0.00 | 0.02 | 0.02 | 58 | 1001.5 |
| 20260505021639 | 50 | 84 | 3.0 | 3.0 | 0.00 | 0.02 | 0.02 | 60 | 1001.6 |
| 20260505021136 | 50 | 99 | 3.0 | 3.0 | 0.00 | 0.02 | 0.02 | 60 | 1001.5 |
| 20260505020632 | 51 | 91 | 3.0 | 3.0 | 0.00 | 0.02 | 0.02 | 58 | 1001.3 |
| 20260505020128 | 53 | 86 | 3.0 | 3.0 | 0.00 | 0.02 | 0.02 | 55 | 1001.4 |
| 20260505015625 | 53 | 92 | 5.0 | 6.0 | 0.00 | 0.02 | 0.02 | 54 | 1001.8 |
| 20260505015122 | 55 | 92 | 3.0 | 3.0 | 0.00 | 0.02 | 0.02 | 51 | 1001.5 |
| 20260505014618 | 56 | 100 | 4.0 | 5.0 | 0.00 | 0.02 | 0.02 | 49 | 1001.8 |
| 20260505014116 | 57 | 114 | 3.0 | 3.0 | 0.00 | 0.02 | 0.02 | 48 | 1001.6 |
| 20260505013613 | 57 | 117 | 3.0 | 3.0 | 0.00 | 0.02 | 0.02 | 48 | 1001.5 |
| 20260505013110 | 58 | 144 | 3.0 | 3.0 | 0.00 | 0.02 | 0.02 | 48 | 1001.8 |
| 20260505012609 | 58 | 111 | 5.0 | 6.0 | 0.00 | 0.02 | 0.02 | 47 | 1001.8 |
| 20260505012105 | 58 | 100 | 5.0 | 6.0 | 0.00 | 0.02 | 0.02 | 46 | 1001.9 |
| 20260505011600 | 58 | 109 | 6.0 | 7.0 | 0.00 | 0.02 | 0.02 | 48 | 1001.9 |
| 20260505011059 | 57 | 88 | 6.0 | 7.0 | 0.00 | 0.02 | 0.02 | 47 | 1001.9 |
| 20260505010559 | 57 | 122 | 7.0 | 8.0 | 0.00 | 0.02 | 0.02 | 48 | 1001.9 |
| 20260505010055 | 57 | 70 | 8.0 | 9.0 | 0.00 | 0.02 | 0.02 | 47 | 1002.2 |
| 20260505005552 | 57 | 112 | 6.0 | 7.0 | 0.00 | 0.02 | 0.02 | 48 | 1002.0 |
| 20260505005049 | 57 | 90 | 6.0 | 8.0 | 0.00 | 0.02 | 0.02 | 48 | 1002.0 |
| 20260505004546 | 58 | 89 | 9.0 | 10.0 | 0.00 | 0.02 | 0.02 | 48 | 1001.8 |
| 20260505004043 | 58 | 45 | 9.0 | 11.0 | 0.00 | 0.02 | 0.02 | 45 | 1001.9 |
| 20260505003540 | 57 | 9 | 7.0 | 9.0 | 0.00 | 0.02 | 0.02 | 49 | 1002.2 |
| 20260505003038 | 57 | 338 | 4.0 | 5.0 | 0.00 | 0.02 | 0.02 | 43 | 1002.2 |
| 20260505002538 | 55 | 239 | 5.0 | 8.0 | 0.00 | 0.02 | 0.02 | 51 | 1002.2 |
| 20260505002037 | 55 | 351 | 13.0 | 15.0 | 0.00 | 0.02 | 0.02 | 50 | 1002.6 |
| 20260505001534 | 56 | 339 | 17.0 | 21.0 | 0.00 | 0.02 | 0.02 | 52 | 1002.7 |
| 20260505001031 | 55 | 322 | 15.0 | 20.0 | 0.00 | 0.02 | 0.02 | 54 | 1002.8 |
| 20260505000529 | 54 | 273 | 11.0 | 15.0 | 0.00 | 0.02 | 0.02 | 56 | 1002.4 |
| 20260505000026 | 57 | 254 | 8.0 | 15.0 | 0.00 | 0.02 | 0.02 | 52 | 1002.4 |
| 20260504235523 | 60 | 331 | 10.0 | 14.0 | 0.00 | 0.02 | 0.02 | 41 | 1001.5 |
| 20260504235019 | 61 | 313 | 5.0 | 7.0 | 0.00 | 0.02 | 0.02 | 41 | 1001.3 |
| 20260504234516 | 61 | 350 | 7.0 | 8.0 | 0.00 | 0.02 | 0.02 | 40 | 1001.0 |
| 20260504234013 | 61 | 0 | 8.0 | 11.0 | 0.00 | 0.02 | 0.02 | 40 | 1000.9 |
| 20260504233508 | 62 | 336 | 8.0 | 9.0 | 0.00 | 0.02 | 0.02 | 38 | 1001.0 |
| 20260504233006 | 62 | 10 | 3.0 | 5.0 | 0.00 | 0.02 | 0.02 | 38 | 1000.9 |
| 20260504232503 | 63 | 336 | 6.0 | 8.0 | 0.00 | 0.02 | 0.02 | 36 | 1001.0 |
| 20260504232000 | 63 | 285 | 7.0 | 10.0 | 0.00 | 0.02 | 0.02 | 34 | 1000.9 |
| 20260504231456 | 63 | 8 | 7.0 | 8.0 | 0.00 | 0.02 | 0.02 | 34 | 1001.2 |
| 20260504230953 | 62 | 335 | 5.0 | 8.0 | 0.00 | 0.02 | 0.02 | 40 | 1001.3 |
| 20260504230449 | 62 | 278 | 3.0 | 6.0 | 0.00 | 0.02 | 0.02 | 40 | 1001.0 |
| 20260504225948 | 62 | 290 | 9.0 | 9.0 | 0.00 | 0.02 | 0.02 | 37 | 1001.3 |
| 20260504225445 | 62 | 339 | 3.0 | 3.0 | 0.00 | 0.02 | 0.02 | 41 | 1001.4 |
| 20260504224942 | 63 | 155 | 1.0 | 2.0 | 0.00 | 0.02 | 0.02 | 37 | 1001.2 |
| 20260504224438 | 62 | 107 | 1.0 | 2.0 | 0.00 | 0.02 | 0.02 | 42 | 1001.0 |
| 20260504223936 | 62 | 107 | 5.0 | 6.0 | 0.00 | 0.02 | 0.02 | 40 | 1001.2 |
| 20260504223431 | 62 | 135 | 3.0 | 3.0 | 0.00 | 0.02 | 0.02 | 44 | 1001.3 |
| 20260504222927 | 62 | 112 | 4.0 | 5.0 | 0.00 | 0.02 | 0.02 | 41 | 1001.2 |
| 20260504222425 | 63 | 115 | 5.0 | 6.0 | 0.00 | 0.02 | 0.02 | 43 | 1001.3 |
| 20260504221923 | 63 | 67 | 6.0 | 7.0 | 0.00 | 0.02 | 0.02 | 41 | 1001.2 |
| 20260504221419 | 64 | 79 | 8.0 | 8.0 | 0.00 | 0.02 | 0.02 | 41 | 1001.2 |
| 20260504220916 | 63 | 99 | 6.0 | 7.0 | 0.00 | 0.02 | 0.02 | 43 | 1001.2 |
| 20260504220413 | 60 | 106 | 5.0 | 7.0 | 0.00 | 0.02 | 0.02 | 49 | 1001.3 |
| 20260504215910 | 60 | 80 | 4.0 | 5.0 | 0.00 | 0.02 | 0.02 | 51 | 1001.5 |
| 20260504215407 | 60 | 104 | 5.0 | 6.0 | 0.00 | 0.02 | 0.02 | 43 | 1001.8 |
| 20260504214903 | 60 | 123 | 6.0 | 7.0 | 0.00 | 0.02 | 0.02 | 47 | 1001.5 |
| 20260504214400 | 59 | 105 | 7.0 | 8.0 | 0.00 | 0.02 | 0.02 | 50 | 1001.6 |
| 20260504213856 | 58 | 72 | 9.0 | 10.0 | 0.00 | 0.02 | 0.02 | 52 | 1001.9 |
| 20260504213352 | 59 | 90 | 11.0 | 14.0 | 0.00 | 0.02 | 0.02 | 47 | 1001.9 |
| 20260504212850 | 59 | 89 | 6.0 | 7.0 | 0.00 | 0.02 | 0.02 | 53 | 1001.9 |
| 20260504212346 | 61 | 88 | 3.0 | 3.0 | 0.00 | 0.02 | 0.02 | 45 | 1002.0 |
| 20260504211844 | 61 | 83 | 4.0 | 5.0 | 0.00 | 0.02 | 0.02 | 44 | 1002.0 |
| 20260504211339 | 62 | 65 | 7.0 | 8.0 | 0.00 | 0.02 | 0.02 | 40 | 1001.9 |
| 20260504210837 | 63 | 140 | 2.0 | 2.0 | 0.00 | 0.02 | 0.02 | 35 | 1002.0 |
| 20260504210334 | 62 | 170 | 4.0 | 6.0 | 0.00 | 0.02 | 0.02 | 39 | 1002.1 |
| 20260504205831 | 58 | 87 | 6.0 | 8.0 | 0.00 | 0.02 | 0.02 | 56 | 1002.1 |
| 20260504205329 | 56 | 149 | 3.0 | 5.0 | 0.00 | 0.02 | 0.02 | 53 | 1002.6 |
| 20260504204827 | 58 | 198 | 5.0 | 6.0 | 0.12 | 0.02 | 0.02 | 52 | 1002.6 |
| 20260504204325 | 59 | 144 | 5.0 | 7.0 | 0.12 | 0.02 | 0.02 | 46 | 1002.5 |
| 20260504203824 | 60 | 130 | 3.0 | 3.0 | 0.00 | 0.00 | 0.00 | 42 | 1002.8 |
| 20260504203321 | 59 | 161 | 0.0 | 0.0 | 0.00 | 0.00 | 0.00 | 44 | 1002.6 |
| 20260504202816 | 60 | 189 | 3.0 | 3.0 | 0.00 | 0.00 | 0.00 | 44 | 1002.4 |
| 20260504202314 | 62 | 169 | 1.0 | 2.0 | 0.00 | 0.00 | 0.00 | 43 | 1002.6 |
| 20260504201810 | 63 | 200 | 3.0 | 3.0 | 0.00 | 0.00 | 0.00 | 42 | 1002.1 |
| 20260504201308 | 65 | 204 | 4.0 | 6.0 | 0.00 | 0.00 | 0.00 | 39 | 1002.5 |
| 20260504200805 | 62 | 120 | 5.0 | 6.0 | 0.00 | 0.00 | 0.00 | 41 | 1002.6 |
| 20260504200301 | 61 | 124 | 3.0 | 5.0 | 0.00 | 0.00 | 0.00 | 40 | 1002.7 |
| 20260504195758 | 61 | 91 | 6.0 | 7.0 | 0.00 | 0.00 | 0.00 | 41 | 1002.7 |
| 20260504195253 | 61 | 69 | 7.0 | 7.0 | 0.00 | 0.00 | 0.00 | 43 | 1002.7 |
| 20260504194751 | 64 | 317 | 6.0 | 7.0 | 0.00 | 0.00 | 0.00 | 36 | 1002.5 |
| 20260504194247 | 61 | 85 | 3.0 | 3.0 | 0.00 | 0.00 | 0.00 | 41 | 1002.6 |
| 20260504193743 | 61 | 22 | 4.0 | 6.0 | 0.00 | 0.00 | 0.00 | 43 | 1002.8 |
| 20260504193241 | 62 | 338 | 8.0 | 9.0 | 0.00 | 0.00 | 0.00 | 35 | 1002.7 |
| 20260504192739 | 64 | 219 | 5.0 | 6.0 | 0.00 | 0.00 | 0.00 | 36 | 1002.6 |
| 20260504192237 | 66 | 170 | 1.0 | 1.0 | 0.00 | 0.00 | 0.00 | 33 | 1002.5 |
| 20260504191735 | 65 | 214 | 3.0 | 3.0 | 0.00 | 0.00 | 0.00 | 36 | 1002.6 |
| 20260504191232 | 63 | 197 | 2.0 | 2.0 | 0.00 | 0.00 | 0.00 | 38 | 1002.7 |
| 20260504190727 | 63 | 352 | 3.0 | 3.0 | 0.00 | 0.00 | 0.00 | 36 | 1002.8 |
| 20260504190224 | 64 | 331 | 3.0 | 5.0 | 0.00 | 0.00 | 0.00 | 35 | 1003.1 |
| 20260504185720 | 64 | 143 | 0.0 | 0.0 | 0.00 | 0.00 | 0.00 | 35 | 1003.0 |
| 20260504185217 | 66 | 150 | 0.0 | 0.0 | 0.00 | 0.00 | 0.00 | 36 | 1003.1 |
| 20260504184713 | 64 | 18 | 7.0 | 8.0 | 0.00 | 0.00 | 0.00 | 38 | 1003.0 |
| 20260504184209 | 65 | 358 | 5.0 | 7.0 | 0.00 | 0.00 | 0.00 | 35 | 1003.1 |
| 20260504183705 | 64 | 17 | 8.0 | 9.0 | 0.00 | 0.00 | 0.00 | 39 | 1002.8 |
| 20260504183202 | 63 | 297 | 5.0 | 7.0 | 0.00 | 0.00 | 0.00 | 37 | 1003.6 |
| 20260504182700 | 62 | 336 | 4.0 | 7.0 | 0.00 | 0.00 | 0.00 | 37 | 1003.1 |
| 20260504182157 | 61 | 346 | 4.0 | 6.0 | 0.00 | 0.00 | 0.00 | 39 | 1003.4 |
| 20260504181655 | 62 | 324 | 8.0 | 9.0 | 0.00 | 0.00 | 0.00 | 37 | 1003.4 |
| 20260504181152 | 63 | 344 | 5.0 | 6.0 | 0.00 | 0.00 | 0.00 | 35 | 1003.2 |
| 20260504180651 | 64 | 356 | 4.0 | 6.0 | 0.00 | 0.00 | 0.00 | 36 | 1003.2 |
| 20260504180149 | 62 | 69 | 2.0 | 2.0 | 0.00 | 0.00 | 0.00 | 37 | 1003.4 |
| 20260504175646 | 64 | 322 | 6.0 | 7.0 | 0.00 | 0.00 | 0.00 | 35 | 1003.6 |
| 20260504175143 | 65 | 11 | 6.0 | 7.0 | 0.00 | 0.00 | 0.00 | 34 | 1003.3 |
| 20260504174641 | 64 | 328 | 8.0 | 9.0 | 0.00 | 0.00 | 0.00 | 33 | 1003.2 |
| 20260504174137 | 64 | 40 | 3.0 | 5.0 | 0.00 | 0.00 | 0.00 | 35 | 1003.6 |
| 20260504173635 | 64 | 125 | 2.0 | 3.0 | 0.00 | 0.00 | 0.00 | 36 | 1003.6 |
| 20260504173132 | 63 | 205 | 3.0 | 3.0 | 0.00 | 0.00 | 0.00 | 37 | 1003.2 |
| 20260504172629 | 63 | 76 | 2.0 | 2.0 | 0.00 | 0.00 | 0.00 | 35 | 1003.4 |
| 20260504172125 | 62 | 248 | 5.0 | 6.0 | 0.00 | 0.00 | 0.00 | 36 | 1003.3 |
| 20260504171621 | 63 | 239 | 6.0 | 7.0 | 0.00 | 0.00 | 0.00 | 37 | 1003.4 |
| 20260504171119 | 62 | 115 | 1.0 | 1.0 | 0.00 | 0.00 | 0.00 | 36 | 1003.4 |
| 20260504170615 | 64 | 307 | 3.0 | 3.0 | 0.00 | 0.00 | 0.00 | 35 | 1003.4 |
| 20260504170113 | 64 | 204 | 2.0 | 2.0 | 0.00 | 0.00 | 0.00 | 35 | 1003.4 |
| 20260504150958 | 59 | 165 | 0.0 | 1.0 | 0.00 | 0.00 | 0.00 | 46 | 1003.9 |
| 20260504150455 | 58 | 166 | 0.0 | 0.0 | 0.00 | 0.00 | 0.00 | 47 | 1004.0 |
| 20260504140922 | 50 | 137 | 0.0 | 1.0 | 0.00 | 0.00 | 0.00 | 55 | 1004.2 |
| 20260504140418 | 50 | 131 | 0.0 | 0.0 | 0.00 | 0.00 | 0.00 | 59 | 1004.5 |
| 20260504130343 | 40 | 101 | 1.0 | 2.0 | 0.00 | 0.00 | 0.00 | 66 | 1004.4 |
| 20260504120306 | 37 | 164 | 0.0 | 0.0 | 0.00 | 0.00 | 0.00 | 65 | 1004.4 |
| 20260504110230 | 38 | 140 | 1.0 | 2.0 | 0.00 | 0.00 | 0.00 | 65 | 1004.3 |
| 20260504100154 | 39 | 152 | 1.0 | 1.0 | 0.00 | 0.00 | 0.00 | 61 | 1004.5 |
| 20260504090116 | 42 | 117 | 6.0 | 7.0 | 0.00 | 0.00 | 0.00 | 56 | 1004.2 |
| 20260504081547 | 41 | 146 | 1.0 | 1.0 | 0.00 | 0.00 | 0.00 | 63 | 1005.0 |
| 20260504081042 | 41 | 134 | 0.0 | 1.0 | 0.00 | 0.00 | 0.00 | 63 | 1004.8 |
| 20260504080539 | 41 | 117 | 1.0 | 1.0 | 0.00 | 0.00 | 0.00 | 63 | 1004.9 |